Weather History for Danville, VA

Change the Weather History Date:

Saturday, January 12, 2013

  Actual Average Record
Temperature  
Mean Temperature 57 °F 37 °F  
Max Temperature 70 °F 46 °F 70 °F (1975)
Min Temperature 44 °F 29 °F 5 °F (1981)
Degree Days  
Heating Degree Days 8 28  
Month to date heating degree days 260 331  
Since 1 July heating degree days 1661 1813  
Cooling Degree Days 0 0  
Month to date cooling degree days 0 0  
Year to date cooling degree days 0 0  
Growing Degree Days 6 (Base 50)    
Moisture  
Dew Point 51 °F    
Average Humidity 85    
Maximum Humidity 100    
Minimum Humidity 70    
Precipitation  
Precipitation 0.00 in 0.11 in 1.07 in (1991)
Month to date precipitation 0.39 1.32  
Year to date precipitation 0.39 1.32  
Snow  
Snow 0.00 in - - ()
Month to date snowfall 0.0  
Since 1 July snowfall 0.0  
Snow Depth 0.00 in    
Sea Level Pressure  
Sea Level Pressure 30.12 in    
Wind  
Wind Speed 2 mph (SW)    
Max Wind Speed 8 mph    
Max Gust Speed 9 mph    
Visibility 3 miles    
Events Fog    
T = Trace of Precipitation, MM = Missing Value Source: NWS Daily Summary

Daily Weather History Graph

Daily Weather History Graph

Search for Another Location

Airport:

Trip Planner

Search our weather history database for the weather conditions in past years. The results will help you decide how hot, cold, wet, or windy it might be!

Date:

Astronomy

Jan. 12, 2013 Rise Set
Actual Time 7:29 AM EST 5:22 PM EST
Civil Twilight 7:01 AM EST 5:50 PM EST
Nautical Twilight 6:29 AM EST 6:22 PM EST
Astronomical Twilight 5:58 AM EST 6:53 PM EST
Moon 7:49 AM EST (1/12) 6:46 PM EST (1/12)
Length of Visible Light 10h 49m
Length of Day
9h 53m
New Moon, 1% of the Moon is Illuminated
Jan 12
New Moon
Jan 18
First Quarter
Jan 26
Full
Feb 3
Last Quarter
Feb 10
New

Hourly Weather History & Observations

Time (EST) Temp. Windchill Dew Point Humidity Pressure Visibility Wind Dir Wind Speed Gust Speed Precip Events Conditions
12:21 AM 44.6 °F 40.7 °F 42.8 °F 93% 30.15 in 4.0 mi WSW 6.9 mph - N/A   Overcast
12:43 AM 44.6 °F 43.1 °F 44.6 °F 100% 30.14 in 2.5 mi SSW 3.5 mph - N/A   Overcast
12:53 AM 44.1 °F 41.5 °F 43.0 °F 96% 30.13 in 1.0 mi SW 4.6 mph - N/A   Overcast
1:00 AM 44.6 °F 43.1 °F 42.8 °F 93% 30.14 in 0.5 mi SW 3.5 mph - N/A Fog Fog
1:07 AM 44.6 °F 43.1 °F 42.8 °F 93% 30.14 in 0.5 mi SW 3.5 mph - N/A Fog Fog
1:14 AM 44.6 °F 43.1 °F 42.8 °F 93% 30.14 in 0.5 mi SW 3.5 mph - N/A Fog Fog
1:44 AM 46.4 °F - 44.6 °F 93% 30.14 in 1.5 mi Calm Calm - N/A   Overcast
1:53 AM 46.0 °F 44.8 °F 45.0 °F 96% 30.12 in 2.0 mi SSW 3.5 mph - N/A   Overcast
2:17 AM 46.4 °F 45.2 °F 44.6 °F 93% 30.14 in 4.0 mi West 3.5 mph - N/A   Overcast
2:53 AM 48.0 °F - 46.0 °F 93% 30.14 in 4.0 mi Calm Calm - N/A   Overcast
3:25 AM 46.4 °F - 46.4 °F 100% 30.14 in 4.0 mi Calm Calm - N/A   Overcast
3:53 AM 48.0 °F - 46.0 °F 93% 30.12 in 2.5 mi SW 5.8 mph - N/A   Overcast
4:08 AM 48.2 °F - 46.4 °F 93% 30.12 in 1.5 mi SSW 3.5 mph - N/A   Overcast
4:53 AM 48.9 °F - 46.9 °F 93% 30.10 in 0.8 mi SSW 5.8 mph - N/A   Mist
5:53 AM 48.9 °F - 48.0 °F 97% 30.11 in 0.5 mi Calm Calm - N/A Fog Fog
6:16 AM 48.2 °F - 46.4 °F 93% 30.12 in 0.2 mi SSW 3.5 mph - N/A Fog Fog
6:53 AM 48.9 °F - 46.9 °F 93% 30.12 in 0.2 mi SSW 3.5 mph - N/A Fog Fog
7:16 AM 50.0 °F - 48.2 °F 94% 30.13 in 0.5 mi SSW 4.6 mph - N/A Fog Fog
7:26 AM 50.0 °F - 48.2 °F 94% 30.14 in 0.2 mi WSW 4.6 mph - N/A Fog Fog
7:53 AM 50.0 °F - 48.9 °F 96% 30.12 in 0.2 mi Calm Calm - N/A Fog Fog
8:53 AM 51.1 °F - 50.0 °F 96% 30.14 in 0.5 mi Calm Calm - N/A Fog Fog
9:07 AM 51.8 °F - 50.0 °F 94% 30.15 in 1.5 mi Calm Calm - N/A   Overcast
9:19 AM 51.8 °F - 50.0 °F 94% 30.15 in 2.5 mi Calm Calm - N/A   Overcast
9:37 AM 51.8 °F - 51.8 °F 100% 30.16 in 3.0 mi WSW 3.5 mph - N/A   Overcast
9:53 AM 53.1 °F - 51.1 °F 93% 30.15 in 3.0 mi Calm Calm - N/A   Overcast
10:13 AM 53.6 °F - 51.8 °F 94% 30.17 in 7.0 mi WSW 3.5 mph - N/A   Mostly Cloudy
10:53 AM 55.0 °F - 53.1 °F 93% 30.14 in 10.0 mi Calm Calm - N/A   Partly Cloudy
11:53 AM 62.1 °F - 55.0 °F 78% 30.12 in 10.0 mi Calm Calm - N/A   Partly Cloudy
12:53 PM 66.0 °F - 57.0 °F 73% 30.10 in 10.0 mi Calm Calm - N/A   Overcast
1:53 PM 68.0 °F - 59.0 °F 73% 30.09 in 10.0 mi SW 3.5 mph - N/A   Overcast
2:53 PM 69.1 °F - 59.0 °F 70% 30.09 in 10.0 mi SSW 5.8 mph - N/A   Partly Cloudy
3:53 PM 68.0 °F - 59.0 °F 73% 30.09 in 10.0 mi SSW 3.5 mph - N/A   Partly Cloudy
4:53 PM 66.9 °F - 57.9 °F 73% 30.09 in 10.0 mi SSW 3.5 mph - N/A   Clear
5:53 PM 61.0 °F - 57.0 °F 87% 30.10 in 10.0 mi Calm Calm - N/A   Partly Cloudy
6:53 PM 57.0 °F - 54.0 °F 89% 30.09 in 8.0 mi Calm Calm - N/A   Clear
7:21 PM 57.2 °F - 55.4 °F 94% 30.11 in 1.2 mi Calm Calm - N/A   Clear
7:40 PM 57.2 °F - 55.4 °F 94% 30.10 in 0.2 mi Calm Calm - N/A Fog Fog
7:53 PM 59.0 °F - 57.0 °F 93% 30.09 in 0.2 mi Calm Calm - N/A Fog Fog
8:02 PM 57.2 °F - 55.4 °F 94% 30.11 in 0.5 mi Calm Calm - N/A Fog Fog
8:19 PM 55.4 °F - 53.6 °F 94% 30.11 in 0.2 mi Calm Calm - N/A Fog Fog
8:30 PM 55.4 °F - 53.6 °F 94% 30.11 in 0.5 mi Calm Calm - N/A Fog Fog
8:38 PM 55.4 °F - 53.6 °F 94% 30.11 in 0.2 mi Calm Calm - N/A Fog Fog
8:53 PM 57.0 °F - 55.0 °F 93% 30.09 in 0.2 mi Calm Calm - N/A Fog Fog
9:11 PM 55.4 °F - 53.6 °F 94% 30.11 in 0.5 mi Calm Calm - N/A Fog Fog
9:18 PM 55.4 °F - 53.6 °F 94% 30.11 in 0.2 mi Calm Calm - N/A Fog Fog
9:27 PM 55.4 °F - 55.4 °F 100% 30.11 in 0.5 mi Calm Calm - N/A Fog Fog
9:53 PM 55.9 °F - 54.0 °F 93% 30.09 in 0.2 mi Calm Calm - N/A Fog Fog
10:08 PM 55.4 °F - 53.6 °F 94% 30.10 in 0.5 mi Calm Calm - N/A Fog Fog
10:34 PM 55.4 °F - 53.6 °F 94% 30.11 in 0.5 mi Calm Calm - N/A Fog Fog
10:53 PM 54.0 °F - 54.0 °F 100% 30.09 in 0.2 mi Calm Calm - N/A Fog Fog
11:21 PM 53.6 °F - 51.8 °F 94% 30.11 in 0.5 mi Calm Calm - N/A Fog Fog
11:50 PM 53.6 °F - 50.0 °F 88% 30.10 in 0.2 mi Calm Calm - N/A Fog Fog